Siloam Springs, AR

9:59 PM CST on February 24, 2017 (GMT -0600)
Smith

Weather History for KSLG - July, 2013

Change the Weather History Date:

Tuesday, July 23, 2013

  Actual Average Record
Temperature  
Mean Temperature 84 °F -  
Max Temperature 96 °F 87 °F 102 °F (2011)
Min Temperature 73 °F 67 °F 60 °F (2003)
Cooling Degree Days 20    
Growing Degree Days 34 (Base 50)    
Moisture  
Dew Point 69 °F    
Average Humidity 61    
Maximum Humidity 78    
Minimum Humidity 41    
Precipitation  
Precipitation 0.59 in - - ()
Sea Level Pressure  
Sea Level Pressure 29.91 in    
Wind  
Wind Speed 9 mph (WSW)    
Max Wind Speed 28 mph    
Max Gust Speed 38 mph    
Visibility 10 miles    
Events Thunderstorm    
Averages and records for this station are not official NWS values.
T = Trace of Precipitation, MM = Missing Value Source: NWS Daily Summary

Daily Weather History Graph

Daily Weather History Graph

Search for Another Location

Airport or City:

Trip Planner

Search our weather history database for the weather conditions in past years. The results will help you decide how hot, cold, wet, or windy it might be!

Date:

Astronomy

Jul. 23, 2013 Rise Set
Actual Time 6:18 AM CDT 8:30 PM CDT
Civil Twilight 5:49 AM CDT 8:59 PM CDT
Nautical Twilight 5:13 AM CDT 9:34 PM CDT
Astronomical Twilight 4:35 AM CDT 10:13 PM CDT
Moon 9:04 PM CDT (7/23) 7:23 AM CDT (7/23)
Length of Visible Light 15h 10m
Length of Day
14h 12m
Full, 99% of the Moon is Illuminated
Jul 23
Full
Jul 29
Last Quarter
Aug 6
New
Aug 14
First Quarter
Aug 20
Full

Hourly Weather History & Observations

Time (CDT) Temp. Heat Index Dew Point Humidity Pressure Visibility Wind Dir Wind Speed Gust Speed Precip Events Conditions
12:15 AM 75.2 °F - 66.2 °F 73% 29.94 in 10.0 mi SSW 8.1 mph - N/A   Clear
12:35 AM 77.0 °F - 66.2 °F 69% 29.94 in 10.0 mi SSW 9.2 mph - N/A   Clear
12:56 AM 77.0 °F - 66.2 °F 69% 29.94 in 10.0 mi SSW 9.2 mph - N/A   Clear
1:15 AM 77.0 °F - 66.2 °F 69% 29.93 in 10.0 mi SSW 9.2 mph - N/A   Clear
1:35 AM 77.0 °F - 66.2 °F 69% 29.93 in 10.0 mi SSW 8.1 mph - N/A   Clear
1:55 AM 77.0 °F - 66.2 °F 69% 29.93 in 10.0 mi SSW 8.1 mph - N/A   Clear
2:15 AM 77.0 °F - 66.2 °F 69% 29.93 in 10.0 mi SSW 8.1 mph - N/A   Clear
2:35 AM 77.0 °F - 66.2 °F 69% 29.93 in 10.0 mi SSW 9.2 mph - N/A   Clear
2:56 AM 77.0 °F - 68.0 °F 74% 29.93 in 10.0 mi SSW 8.1 mph - N/A   Clear
3:15 AM 77.0 °F - 68.0 °F 74% 29.93 in 10.0 mi SSW 8.1 mph - N/A   Clear
3:35 AM 77.0 °F - 68.0 °F 74% 29.93 in 10.0 mi SW 9.2 mph - N/A   Clear
3:55 AM 77.0 °F - 68.0 °F 74% 29.92 in 10.0 mi SW 9.2 mph - N/A   Clear
4:15 AM 77.0 °F - 66.2 °F 69% 29.92 in 10.0 mi SW 8.1 mph - N/A   Clear
4:35 AM 77.0 °F - 66.2 °F 69% 29.92 in 10.0 mi SW 8.1 mph - N/A   Mostly Cloudy
4:55 AM 77.0 °F - 66.2 °F 69% 29.92 in 10.0 mi SW 6.9 mph - N/A   Mostly Cloudy
5:15 AM 75.2 °F - 66.2 °F 73% 29.92 in 10.0 mi SW 6.9 mph - N/A   Scattered Clouds
5:35 AM 75.2 °F - 66.2 °F 73% 29.92 in 10.0 mi SW 5.8 mph - N/A   Partly Cloudy
5:55 AM 75.2 °F - 66.2 °F 73% 29.93 in 10.0 mi SW 4.6 mph - N/A   Clear
6:16 AM 75.2 °F - 66.2 °F 73% 29.93 in 10.0 mi SSW 5.8 mph - N/A   Clear
6:35 AM 75.2 °F - 66.2 °F 73% 29.94 in 10.0 mi SSW 3.5 mph - N/A   Clear
6:55 AM 75.2 °F - 66.2 °F 73% 29.94 in 10.0 mi SSW 4.6 mph - N/A   Clear
7:15 AM 75.2 °F - 66.2 °F 73% 29.94 in 10.0 mi SW 6.9 mph - N/A   Clear
7:56 AM 80.6 °F 83.2 °F 68.0 °F 65% 29.94 in 10.0 mi SW 11.5 mph - N/A   Clear
8:15 AM 80.6 °F 83.2 °F 68.0 °F 65% 29.95 in 10.0 mi SW 12.7 mph 18.4 mph N/A   Clear
8:35 AM 82.4 °F 86.3 °F 69.8 °F 66% 29.95 in 10.0 mi WSW 11.5 mph 19.6 mph N/A   Clear
8:55 AM 84.2 °F 88.4 °F 69.8 °F 62% 29.95 in 10.0 mi West 11.5 mph 17.3 mph N/A   Clear
9:35 AM 86.0 °F 90.4 °F 69.8 °F 58% 29.96 in 10.0 mi West 13.8 mph - N/A   Clear
9:55 AM 87.8 °F 92.6 °F 69.8 °F 55% 29.97 in 10.0 mi West 12.7 mph 19.6 mph N/A   Clear
10:15 AM 87.8 °F 92.6 °F 69.8 °F 55% 29.97 in 10.0 mi West 12.7 mph 17.3 mph N/A   Clear
10:35 AM 87.8 °F 92.6 °F 69.8 °F 55% 29.96 in 10.0 mi WSW 15.0 mph - N/A   Clear
10:56 AM 89.6 °F 96.2 °F 71.6 °F 55% 29.95 in 10.0 mi West 12.7 mph - N/A   Clear
11:15 AM 89.6 °F 96.2 °F 71.6 °F 55% 29.95 in 10.0 mi WSW 11.5 mph 17.3 mph N/A   Clear
11:35 AM 91.4 °F 98.4 °F 71.6 °F 52% 29.94 in 10.0 mi West 10.4 mph - N/A   Clear
11:55 AM 91.4 °F 98.4 °F 71.6 °F 52% 29.95 in 10.0 mi WNW 11.5 mph - N/A   Clear
12:35 PM 93.2 °F 100.5 °F 71.6 °F 49% 29.95 in 10.0 mi West 9.2 mph - N/A   Scattered Clouds
12:55 PM 93.2 °F 100.5 °F 71.6 °F 49% 29.93 in 10.0 mi WNW 5.8 mph - N/A   Scattered Clouds
1:16 PM 93.2 °F 100.5 °F 71.6 °F 49% 29.93 in 10.0 mi WNW 8.1 mph 16.1 mph N/A   Partly Cloudy
1:55 PM 95.0 °F 103.2 °F 71.6 °F 47% 29.90 in 10.0 mi WSW 9.2 mph - N/A   Clear
2:15 PM 96.8 °F 105.1 °F 71.6 °F 44% 29.90 in 10.0 mi WSW 8.1 mph - N/A   Clear
2:35 PM 95.0 °F 103.2 °F 71.6 °F 47% 29.89 in - NW 6.9 mph - N/A   Scattered Clouds
2:55 PM 96.8 °F 105.1 °F 71.6 °F 44% 29.90 in 10.0 mi NW 8.1 mph - N/A   Mostly Cloudy
3:35 PM 96.8 °F 105.1 °F 71.6 °F 44% 29.87 in - WNW 6.9 mph - N/A   Scattered Clouds
3:55 PM 96.8 °F 103.1 °F 69.8 °F 41% 29.87 in - West 6.9 mph - N/A   Clear
4:15 PM 96.8 °F 103.1 °F 69.8 °F 41% 29.86 in - NW 8.1 mph - N/A   Scattered Clouds
4:35 PM 96.8 °F 105.1 °F 71.6 °F 44% 29.86 in - NW 11.5 mph - N/A   Scattered Clouds
4:55 PM 96.8 °F 105.1 °F 71.6 °F 44% 29.85 in - NNW 6.9 mph - N/A   Scattered Clouds
5:15 PM 96.8 °F 105.1 °F 71.6 °F 44% 29.85 in - NNW 8.1 mph - N/A   Scattered Clouds
5:35 PM 96.8 °F 105.1 °F 71.6 °F 44% 29.84 in - NW 10.4 mph - N/A   Scattered Clouds
5:55 PM 95.0 °F 103.2 °F 71.6 °F 47% 29.85 in - NW 6.9 mph - N/A   Partly Cloudy
6:15 PM 91.4 °F 98.4 °F 71.6 °F 52% 29.84 in 10.0 mi NNW 5.8 mph - N/A   Scattered Clouds
6:35 PM 91.4 °F 98.4 °F 71.6 °F 52% 29.84 in 10.0 mi NW 4.6 mph - N/A   Partly Cloudy
6:55 PM 91.4 °F 98.4 °F 71.6 °F 52% 29.84 in 10.0 mi NNW 5.8 mph - N/A   Clear
7:35 PM 89.6 °F 96.2 °F 71.6 °F 55% 29.83 in 10.0 mi NNE 5.8 mph - N/A   Clear
7:55 PM 89.6 °F 96.2 °F 71.6 °F 55% 29.84 in 10.0 mi NNE 5.8 mph - N/A   Clear
8:36 PM 87.8 °F 93.8 °F 71.6 °F 58% 29.85 in 10.0 mi Calm Calm - N/A   Clear
8:55 PM 86.0 °F 91.8 °F 71.6 °F 62% 29.84 in 10.0 mi NNE 3.5 mph - N/A Thunderstorm Clear
9:15 PM 84.2 °F 89.6 °F 71.6 °F 66% 29.84 in 9.0 mi ENE 3.5 mph - N/A Thunderstorm Thunderstorm
9:35 PM 78.8 °F - 66.2 °F 65% 29.88 in 8.0 mi West 27.6 mph 38.0 mph 0.16 in Thunderstorm Thunderstorm
9:55 PM 75.2 °F - 62.6 °F 65% 29.84 in 5.0 mi ESE 10.4 mph - N/A Thunderstorm Thunderstorm
10:15 PM 75.2 °F - 66.2 °F 73% 29.88 in 10.0 mi South 23.0 mph 28.8 mph N/A Thunderstorm Overcast
10:35 PM 75.2 °F - 68.0 °F 78% 29.89 in 10.0 mi South 18.4 mph 24.2 mph 0.01 in Thunderstorm Overcast
10:55 PM 75.2 °F - 68.0 °F 78% 29.91 in 10.0 mi East 11.5 mph 25.3 mph 0.01 in Thunderstorm Thunderstorm
11:15 PM 73.4 °F - 66.2 °F 78% 29.90 in 10.0 mi SE 18.4 mph 21.9 mph N/A Thunderstorm Overcast
11:35 PM 73.4 °F - 66.2 °F 78% 29.95 in 10.0 mi SSE 12.7 mph 23.0 mph N/A Thunderstorm Thunderstorm
11:55 PM 73.4 °F - 66.2 °F 78% 30.01 in 5.0 mi South 6.9 mph - 0.42 in Thunderstorm Thunderstorm